Flag for Canada Weather past 2 weeks in North Bay, Ontario, Canada

Now
19 °F

Partly sunny.


Feels Like: 14 °F
Forecast: 13 / 24 °F
Wind: 3 mph from Northwest

Location: North Bay

Current Time: Dec 21, 2014 at 10:21:14 AM

Latest Report: Dec 21, 2014 at 10:00 AM


Visibility: 30 mi

Pressure: 30.32 "Hg

Humidity: 86%

Dew point: 16 °F

Location of North BayLocation

Historic Weather in North Bay — Graph

°F

North Bay temperature yesterday

Maximum temperature yesterday: 25 °F (at 2:00 PM)
Minimum temperature yesterday: 0 °F (at 9:00 AM)
Average temperature yesterday: 13 °F

Past Weeks' High & Low Weather Summary

 TemperatureHumidityPressure
High36 °F (Dec 16, 11:00 AM)100% (Dec 7, 2:00 AM)30.84 "Hg (Dec 7, 2:00 AM)
Low0 °F (Dec 20, 9:00 AM)42% (Dec 8, 10:00 AM)29.77 "Hg (Dec 17, 4:00 AM)
Average22 °F89%30.13 "Hg
* Reported Dec 6 9:00 AM — Dec 21 9:00 AM, North Bay, Weather by CustomWeather, © 2014

Note: Actual official high and low records may vary slightly from our data, if they occured in-between our weather recording intervals... More about our weather records

Advertising

North Bay weather history for previous 24 hours

 ConditionsComfort  
Time TempWeatherWind HumidityBarometerVisibility
9:00 AM
Dec 21
18 °FPartly sunny.2 mph93%30.32 "Hg15 mi
8:00 AM18 °FOvercast.2 mph93%30.32 "Hg15 mi
7:00 AM18 °FOvercast.2 mph93%30.31 "Hg15 mi
6:00 AM18 °FOvercast.2 mph93%30.31 "Hg9 mi
5:00 AM18 °FOvercast.5 mph93%30.29 "Hg9 mi
4:00 AM19 °FOvercast.2 mph86%30.28 "Hg9 mi
3:00 AM19 °FOvercast.9 mph79%30.28 "Hg9 mi
2:00 AM19 °FOvercast.7 mph86%30.28 "Hg9 mi
1:00 AM21 °FOvercast.6 mph80%30.28 "Hg9 mi
12:00 AM21 °FOvercast.8 mph80%30.28 "Hg9 mi
11:00 PM
Dec 20
21 °FOvercast.7 mph80%30.30 "Hg9 mi
10:00 PM19 °FPassing clouds.6 mph73%30.31 "Hg15 mi
9:00 PM18 °FPassing clouds.6 mph73%30.32 "Hg15 mi
8:00 PM18 °FPassing clouds.6 mph73%30.32 "Hg15 mi
7:00 PM14 °FPassing clouds.5 mph92%30.32 "Hg15 mi
6:00 PM14 °FPassing clouds.2 mph92%30.32 "Hg15 mi
5:00 PM18 °FPassing clouds.3 mph86%30.30 "Hg30 mi
4:00 PM19 °FScattered clouds.3 mph86%30.30 "Hg30 mi
3:00 PM23 °FScattered clouds.3 mph74%30.29 "Hg30 mi
2:00 PM25 °FScattered clouds.3 mph69%30.29 "Hg30 mi
1:00 PM23 °FPassing clouds.2 mph63%30.30 "Hg15 mi
12:00 PM21 °FPassing clouds.2 mph74%30.32 "Hg15 mi
11:00 AM16 °FPassing clouds.No wind86%30.34 "Hg15 mi
10:00 AM9 °FPassing clouds.No wind92%30.38 "Hg15 mi
Weather by CustomWeather, © 2014

See weather overviewHow to use our weather pages